{"data":{"norad_id":61242,"epoch":"2026-05-25T05:00:13.622400Z","epoch_age_seconds":57355,"freshness":"FRESH","line1":"1 61242U 24174E   26145.20849100  .00006179  00000+0  23386-3 0  9992","line2":"2 61242  97.4462 156.2175 0011819 321.9253  38.1149 15.27239337 92336","mean_motion":15.27239337,"eccentricity":0.0011819,"inclination_deg":97.4462,"raan_deg":156.2175,"arg_perigee_deg":321.9253,"mean_anomaly_deg":38.1149,"bstar":0.00023386,"rev_number":9233,"period_min":94.287775669047,"perigee_km":475.95891153284,"apogee_km":492.17979491059,"semimajor_km":6862.2063532217,"source":"CELESTRAK","updated_at":"2026-05-25T13:38:02.346378Z"}}